Location: Newark
(45.8378°N, 5.5389°E)
Time: 03:45:51
(UTC+00:00)

Envisat - Visible Passes

Search period start: 20 October 2019 00:00
Search period end: 30 October 2019 00:00
Orbit: 764 x 766 km, 98.1° (Epoch: 19 October)

Date Brightness Start Highest point End Pass type
(mag) Time Alt. Az. Time Alt. Az. Time Alt. Az.
20 Oct 3.0 17:31:24 10° SSE 17:36:28 81° ENE 17:41:35 10° NNW visible
20 Oct 6.1 19:13:40 10° WSW 19:16:08 14° W 19:18:37 10° WNW visible
21 Oct 5.1 18:34:36 10° SSW 18:38:58 28° W 18:43:21 10° NW visible
22 Oct 6.7 05:04:10 10° ENE 05:05:21 11° E 05:06:32 10° E visible
22 Oct 3.6 17:56:59 10° S 18:02:00 60° W 18:07:03 10° NNW visible
23 Oct 3.0 17:20:13 10° SSE 17:25:14 65° ENE 17:30:17 10° N visible
23 Oct 5.8 19:01:27 10° SW 19:04:44 17° W 19:08:00 10° NW visible
24 Oct 6.0 05:27:37 10° NE 05:31:12 19° E 05:34:46 10° SE visible
24 Oct 4.6 18:22:59 10° SSW 18:27:37 35° W 18:32:17 10° NNW visible
25 Oct 3.2 17:45:39 10° S 17:50:43 75° WSW 17:55:50 10° NNW visible
26 Oct 3.1 17:09:06 10° SE 17:14:00 53° ENE 17:18:57 10° N visible
26 Oct 5.5 18:49:31 10° SW 18:53:21 21° W 18:57:11 10° NW visible
27 Oct 6.2 05:16:53 10° NE 05:19:48 15° E 05:22:42 10° ESE visible
27 Oct 4.2 18:11:27 10° S 18:16:17 44° W 18:21:10 10° NNW visible
28 Oct 3.0 17:34:22 10° SSE 17:39:27 88° ENE 17:44:34 10° NNW visible
28 Oct 6.1 19:17:07 10° WSW 19:19:10 12° W 19:21:13 10° WNW visible
29 Oct 5.7 05:41:23 10° NE 05:45:35 26° E 05:49:47 10° SSE visible
29 Oct 3.4 16:58:02 10° SE 17:02:48 42° ENE 17:07:35 10° N visible
29 Oct 5.2 18:37:44 10° SSW 18:41:58 26° W 18:46:13 10° NW visible
